Overview Statistics Trail Chart Weather Telemetry Raw packets
 

This is the latest recevied weather packets stored in our database for station/object OK1VOF-13. If no packets are shown the sender has not sent any weather packets the latest 10 day(s).

<< 1 2 3 4 >>
Time Temp. Humidity Pressure Rain* Wind** Luminosity Snow
1788617037 22.22° C 54% 1020.4 hPa 0 mm - - -
1788613485 21.11° C 55% 1020.9 hPa 0 mm - - -
1788611694 21.11° C 58% 1021 hPa 54.1 mm - - -
1788609896 20° C 61% 1021.4 hPa 54.1 mm - - -
1788608107 20° C 62% 1021.1 hPa 0 mm - - -
1788607805 19.44° C 62% 1021.1 hPa 26.42 mm - - -
1788606906 19.44° C 63% 1021.2 hPa 26.42 mm - - -
1788605101 19.44° C 65% 1021 hPa 26.42 mm - - -
1788604806 19.44° C 65% 1021 hPa 26.42 mm - - -
1788604497 19.44° C 65% 1020.8 hPa 26.42 mm - - -
1788604177 19.44° C 66% 1020.8 hPa 0 mm - - -
1788602683 18.33° C 66% 1020.8 hPa 0 mm - - -
1788602384 18.33° C 66% 1021 hPa 0 mm - - -
1788602085 18.33° C 66% 1021.4 hPa 0 mm - - -
1788601488 18.33° C 67% 1021.2 hPa 0 mm - - -
1788600890 18.33° C 67% 1020.9 hPa 0 mm - - -
1788600591 18.33° C 68% 1021.2 hPa 0 mm - - -
1788599695 17.78° C 68% 1021.1 hPa 0 mm - - -
1788599390 17.78° C 68% 1021.4 hPa 0 mm - - -
1788599091 17.22° C 68% 1021.3 hPa 0 mm - - -
1788598792 17.22° C 68% 1021.2 hPa 0 mm - - -
1788598493 17.22° C 68% 1021.3 hPa 0 mm - - -
1788598194 17.22° C 68% 1021.3 hPa 0 mm - - -
1788597896 17.22° C 68% 1021 hPa 0 mm - - -
1788597603 17.22° C 68% 1020.9 hPa 0 mm - - -

* Rain latest hour (hover to see other rain measurements)
** Current wind speed in m/s (hover to see current wind gust speed)